AEROCUBE 2

Satellite information

Favourite Embed

Satellite Type and Status

PAYLOADIN ORBIT

Key statistics

Satellite AEROCUBE 2 at a glance.

Uptime

6816

Days in orbit

Revolutions

≈ 14.7

Per day

Orbit

SSO

Sun Synchronous Orbit

Inclination

98.4

Latest

Satellite identification and parameters

Extended collection of information and parameters for AEROCUBE 2.

Object identification

Identified? True

Debris? False

Object name: AEROCUBE 2

International designator: 2007-012R

Object number (NORAD): 31133

Object ID (CCSDS): 31133

Country: UNITED STATES OF AMERICA (US)

Current information (Y/N): Y

RCS size: SMALL

Orbital parameters

Period: 98.22 minutes

Inclination: 98.4179 deg

SMA: 7051.705 km

Apoapsis: 724.086 km

Periapsis: 623.055 km

RAAN: 320.8465 deg

Eccentricy: 0.0071636

Argument of periapsis: 188.7601 deg

Mean anomaly: 171.2357 deg

Mean motion: 14.66093052 rev/day

Mean motion (dot): 0.00002126 rev/day2

B* drag term: 0.00038231 1/REarth

Two-line elements (TLE)

Creation date: Dec. 12, 2025, 7:26 a.m.

Reference frame: TEME

Reference center: EARTH

Epoch: Dec. 11, 2025, 9:29 p.m. UTC

TLE line 0: 0 AEROCUBE 2

TLE line 1: 1 31133U 07012R 25345.89537602 .00002126 00000-0 38231-3 0 9991

TLE line 2: 2 31133 98.4179 320.8465 0071636 188.7601 171.2357 14.66093052992915

Live tracking on map

Real-time ground track for satellite AEROCUBE 2.

In-orbit conjunctions

A list of the most updated potential collisions computed for object AEROCUBE 2.

Target Orbit TCA Probability of collision Miss distance Type
SL-18 DEB LEO 2025-11-29 06:06:14 0.000272634 878.0 (m) DEBRIS
IRIDIUM 33 DEB LEO 2025-02-13 08:27:50 0.0002712885 126.0 (m) DEBRIS
ARIANE 1 DEB SSO 2024-12-05 15:59:21 0.0001018623 574.0 (m) DEBRIS
COSMOS 2251 DEB LEO 2024-11-26 15:59:15 0.0001070616 566.0 (m) DEBRIS
COSMOS 2251 DEB LEO 2024-08-29 21:35:58 0.0001785723 235.0 (m) DEBRIS

Associated space launch

Rideshare mission with Egyptian and Saudi Arabian Earth observation satellites as well as 14 American cubesats

AEROCUBE 2 was lifted into orbit during the mission ‘Dnepr | EgyptSat 1 & Saudisat 3’, on board a Dnepr space rocket.

The launch took place on April 17, 2007, 6:46 a.m. from 109/95.

For more information about the launch, click the button.

Launch to space Dnepr | EgyptSat 1 & Saudisat 3
Dnepr | EgyptSat 1 & Saudisat 3

Agency: N/A

Status: Launch Successful

Launch date: April 17, 2007, 6:46 a.m. UTC

Rocket: Dnepr

Launch pad: 109/95

Location: Baikonur Cosmodrome, Republic of Kazakhstan

...

Latest news about this satellite

There are no fresh news available about this satellite. Check back as we update our databases every day.


Newsletter sign-up

Weekly statistics, charts and insights to help you stay on top of the space industry.